Regional Weather Roundup
Issued by NWS Portland, ME

Home | Current Version | Previous Version | Text Only | Print | Product List | Glossary On
Versions: 1 2 3 4 5 6 7 8 9 10 11 12 13 14 15 16 17 18 19 20 21 22 23 24 25 26 27 28 29 30 31 32 33 34 35 36 37 38 39 40 41 42 43 44 45 46 47 48 49 50
000
ASUS41 KGYX 290310
RWRGYX
WEATHER ROUNDUP FOR MAINE AND NEW HAMPSHIRE
NATIONAL WEATHER SERVICE GRAY ME
1100 PM EDT FRI AUG 28 2015

MEZ002-005-006-010-012-015-018-020-021-024-026-027-029-290400-
MAINE

CITY           SKY/WX    TMP DP  RH WIND       PRES   REMARKS
PORTLAND       PTCLDY    63  58  83 CALM      30.14S
SANFORD        CLEAR     55  50  82 CALM      30.16R
BAR HARBOR     CLEAR     63  63 100 SW3       30.12S
WISCASSET      CLEAR     58  56  93 CALM      30.15S
ROCKLAND       CLEAR     59  55  88 W3        30.12S
FRYEBURG       CLEAR     57  57 100 CALM      30.15S
LEWISTONAUBURN CLEAR     57 N/A N/A CALM      30.14S
AUGUSTA        CLEAR     62  58  86 CALM      30.14S
WATERVILLE     CLEAR     61  55  82 CALM      30.11R
BANGOR         CLEAR     59  56  89 NW8       30.13R
GREENVILLE       N/A     60  54  80 VRB3      30.13R
MILLINOCKET    CLEAR     65  57  75 W6        30.11R
HOULTON        CLEAR     54  52  93 SW3       30.08R
PRESQUE ISLE   CLEAR     55  50  82 SW5       30.07R
FRENCHVILLE    CLEAR     61  54  77 W12       30.06R
CARIBOU        CLEAR     59  53  80 SW3       30.06R
$$

NHZ002-005-008-009-011-012-014-290400-
NEW HAMPSHIRE

CITY           SKY/WX    TMP DP  RH WIND       PRES   REMARKS
PORTSMOUTH     CLEAR     63  58  85 W3        30.14R
ROCHESTER      CLEAR     60  56  86 CALM      30.15S
NASHUA         CLEAR     61  56  83 NW6       30.17R
MANCHESTER     CLEAR     65  55  70 CALM      30.15R
CONCORD        CLEAR     58  55  90 CALM      30.16S
LACONIA        CLEAR     61  54  77 CALM      30.16S
PLYMOUTH       FAIR      55  54  96 CALM      30.17S FOG
BERLIN         CLEAR     50  48  93 CALM      30.19R
WHITEFIELD     CLEAR     53  50  89 CALM      30.19S
JAFFREY        CLEAR     57  55  93 CALM      30.21R
KEENE          CLEAR     57  54  88 CALM      30.20R
LEBANON        CLEAR     56  54  93 CALM      30.18R
MT WASHINGTON  PTCLDY    46  28  49 W15         N/A
$$

VTZ005-007-008-290400-
VERMONT

CITY           SKY/WX    TMP DP  RH WIND       PRES   REMARKS
ST JOHNSBURY     N/A     58  54  86 MISG      30.17R
MONTPELIER     PTCLDY    54  51  90 CALM      30.23R
BURLINGTON     CLEAR     62  57  83 CALM      30.17R
$$

MAZ007-012-024-CTZ003-RIZ002-NYZ038-NYZ072-290400-
SOUTHERN NEW ENGLAND AND NY

CITY           SKY/WX    TMP DP  RH WIND       PRES   REMARKS
BOSTON         PTCLDY    71  59  65 SW7       30.16R
WORCESTER      CLEAR     62  53  72 W8        30.21R
NANTUCKET      CLEAR     63  60  90 S5        30.18R
PROVIDENCE     PTCLDY    67  56  67 W7        30.18R
HARTFORD       PTCLDY    65  55  70 CALM      30.18R
ALBANY         PTCLDY    62  53  72 CALM      30.20R
NEW YORK CITY  PTCLDY    75  54  47 N3        30.19R
$$

ANZ081-ANZ082-ANZ150-NHZ014-MEZ023>029-290400-
COASTAL MARINE OBSERVATIONS

STATION/POSITION TIME  TEMP    WIND        PRES    WAVE
                       AIR SEA DIR/SP/G            HT/PER
                 (UTC) (F)     (DEG/KT/KT) (MB)    (FT/S)
MOUNT DESERT ROC 0300   59     240/ 12/ 12 1020.4R
MATINICUS ROCK   0300   61     250/ 12/ 12 1020.2F
ISLE OF SHOALS   0300   67     230/  9/ 10 1020.5R
JEFFREYS LEDGE   0203      69                N/A     3/10
CASHES LEDGE BUO 0250   68                 1020.3R   3/11
GEORGES BANK BUO 0250   67 69  320/  2/  4 1020.9R   5/10
$$

.............KEY..............
   WCI - WIND CHILL
   TC  - TEMPERATURE IN CELSIUS
   VSB - VISIBILITY IN MILES
   HX  - HEAT INDEX
   FAIR- INDICATES FEW OR NO CLOUDS BELOW 12,000 FT, WITH NO
         SIGNIFICANT WEATHER AND/OR OBSTRUCTIONS TO VISIBILITY.





USA.gov is the U.S. government's official web portal to all federal, state and local government web resources and services.